Regional Weather Roundup
Issued by NWS

Home | Current Version | Previous Version | Text Only | Print | Product List | Glossary Off
Versions: 1 2 3 4 5 6 7 8 9 10 11 12 13 14 15 16 17 18 19 20 21 22 23 24 25 26 27 28 29 30 31 32 33 34 35 36 37 38 39 40 41 42 43 44 45 46 47 48 49 50

490
ASUS43 KIND 152159
RWRIN

WEATHER ROUNDUP FOR INDIANA
NATIONAL WEATHER SERVICE INDIANAPOLIS IN
500 PM EST MON JAN 15 2018

NOTE: "FAIR" INDICATES FEW OR NO CLOUDS BELOW 12,000 FEET WITH NO
SIGNIFICANT WEATHER AND/OR OBSTRUCTIONS TO VISIBILITY.

* - STATION DOES NOT REPORT WEATHER SUCH AS PRECIPITATION OR FOG.

+ - STATION NOT QUALITY CONTROLLED BY THE NATIONAL WEATHER SERVICE.
    USE DATA WITH CAUTION...ESPECIALLY DEWPOINT AND RELATIVE
    HUMIDITY OBSERVATIONS.

INZ001>003-010>013-019-020-152300-
NORTHWEST INDIANA

CITY           SKY/WX    TMP DP  RH WIND       PRES   REMARKS
GARY /AIRPORT/ LGT SNOW  16   9  73 W17       30.23R WCI   0
KNOX *+        CLOUDY    18  12  79 W15G21    30.22R WCI   3
MICHIGAN CITY+ LGT SNOW  19  14  79 SW9       30.21R WCI   9
MONTICELLO +   CLOUDY    14   7  75 W15G21    30.26R WCI  -2

$$

LMZ046-743>745-152300-
SOUTHERN LAKE MICHIGAN

STATION/POSITION TIME  TEMP    WIND        PRES    WAVE
                       AIR SEA DIR/SP/G            HT
                 (UTC) (F)     (DEG/KT/KT) (MB)    (FT)
BURNS HARBOR     2140   17     250/ 16/ 20 1023.4R
MICHIGAN CITY    2130          230/ 22/ 24   N/A

$$

INZ004-005-014>016-021>024-152300-
NORTH CENTRAL INDIANA

CITY           SKY/WX    TMP DP  RH WIND       PRES   REMARKS
ELKHART        LGT SNOW  23  19  86 S3        30.18R
GOSHEN         LGT SNOW  23  19  85 S5        30.18R FOG     WCI  17
PERU/GRISSOM   CLOUDY    19  18  97 W14       30.23R WCI   5
SOUTH BEND     LGT SNOW  22  19  89 S6        30.18R FOG     WCI  14

$$

INZ006>009-017-018-025>027-152300-
NORTHEAST INDIANA

CITY           SKY/WX    TMP DP  RH WIND       PRES   REMARKS
FORT WAYNE     LGT SNOW  24  21  88 SW10      30.22R FOG     WCI  14
KENDALLVILLE + LGT SNOW  22  19  89 SW5       30.18R WCI  16

$$

INZ028-029-035-036-043>045-051>053-152300-
WEST CENTRAL INDIANA

CITY           SKY/WX    TMP DP  RH WIND       PRES   REMARKS
GREENCASTLE +  CLOUDY    16   9  73 W10       30.30R WCI   3
LAFAYETTE      LGT SNOW  13   7  77 W13       30.30R WCI  -2
TERRE HAUTE    LGT SNOW  15   7  70 W13       30.35R WCI   1

$$

INZ030>032-037>040-046>048-054>057-064-065-152300-
CENTRAL INDIANA

CITY           SKY/WX    TMP DP  RH WIND       PRES   REMARKS
COLUMBUS       CLOUDY    27  21  80 SW7       30.28R WCI  19
GREENWOOD *+   CLOUDY    27  23  84 W7        30.26R WCI  19
INDIANAPOLIS   CLOUDY    24  16  71 W15       30.26R WCI  11
-EAGLE CREEK   CLOUDY    23  14  68 W9G17     30.25R WCI  13
MT COMFORT *+  CLOUDY    25  23  93 W12       30.25R WCI  14
SHELBYVILLE    CLOUDY    26  22  84 W8        30.26R WCI  18

$$

INZ033-034-041-042-049-050-058-059-152300-
EAST CENTRAL INDIANA

CITY           SKY/WX    TMP DP  RH WIND       PRES   REMARKS
MUNCIE         LGT SNOW  26  21  81 SW8       30.23R WCI  18
RICHMOND +     CLOUDY    25  23  93 W13       30.24R WCI  13

$$

INZ060-061-067>069-081>083-085>088-152300-
SOUTHWEST INDIANA

CITY           SKY/WX    TMP DP  RH WIND       PRES   REMARKS
EVANSVILLE     CLOUDY    25  11  55 W13G23    30.38R WCI  14
HUNTINGBURG +  LGT SNOW  26  23  88 W16       30.35R FOG     WCI  14

$$

INZ062-063-066-070>080-084-089>092-152300-
SOUTH CENTRAL AND SOUTHEAST INDIANA

CITY           SKY/WX    TMP DP  RH WIND       PRES   REMARKS
BLOOMINGTON    LGT SNOW  23  18  81 W12       30.28R WCI  12
SEYMOUR +      CLOUDY    30  23  74 W10       30.30  WCI  21

$$





USA.gov is the U.S. government's official web portal to all federal, state and local government web resources and services.